Weather History for PAMH - January, 2013

Change the Weather History Date:

Saturday, January 12, 2013

  Actual Average Record
Temperature  
Mean Temperature 16 °F -  
Max Temperature 23 °F 0 °F 23 °F (2013)
Min Temperature 10 °F -10 °F -52 °F (2005)
Degree Days  
Heating Degree Days 48    
Moisture  
Dew Point 16 °F    
Average Humidity 90    
Maximum Humidity 100    
Minimum Humidity 79    
Precipitation  
Precipitation 0.09 in - - ()
Sea Level Pressure  
Sea Level Pressure 29.82 in    
Wind  
Wind Speed 2 mph (ENE)    
Max Wind Speed 8 mph    
Max Gust Speed -    
Visibility 8 miles    
Events      
Averages and records for this station are not official NWS values.
T = Trace of Precipitation, MM = Missing Value Source: NWS Daily Summary

Daily Weather History Graph

Daily Weather History Graph

Search for Another Location

Airport or City:

Trip Planner

Search our weather history database for the weather conditions in past years. The results will help you decide how hot, cold, wet, or windy it might be!

Date:

Astronomy

Jan. 12, 2013 Rise Set
Actual Time 10:38 AM AKST 3:57 PM AKST
Civil Twilight 9:30 AM AKST 5:05 PM AKST
Nautical Twilight 8:26 AM AKST 6:09 PM AKST
Astronomical Twilight 7:29 AM AKST 7:07 PM AKST
Moon 10:13 AM AKST (1/12) 6:37 PM AKST (1/12)
Length of Visible Light 7h 34m
Length of Day
5h 18m
New Moon, 2% of the Moon is Illuminated
Jan 12
New Moon
Jan 18
First Quarter
Jan 26
Full
Feb 3
Last Quarter
Feb 9
New

Hourly Weather History & Observations

Time (AKST) Temp. Windchill Dew Point Humidity Pressure Visibility Wind Dir Wind Speed Gust Speed Precip Events Conditions
12:16 AM 10.4 °F - 8.6 °F 92% 30.04 in 10.0 mi Calm Calm - N/A   Clear
12:36 AM 10.4 °F - 8.6 °F 92% 30.04 in 10.0 mi North - - N/A   Partly Cloudy
12:56 AM 10.4 °F - 8.6 °F 92% 30.03 in 10.0 mi Calm Calm - N/A   Partly Cloudy
1:16 AM 10.4 °F - 8.6 °F 92% 30.02 in 10.0 mi Calm Calm - N/A   Clear
1:36 AM 12.2 °F - 10.4 °F 92% 30.00 in 10.0 mi Calm Calm - N/A   Clear
1:56 AM 10.4 °F - 8.6 °F 92% 29.99 in 10.0 mi Calm Calm - N/A   Clear
2:16 AM 12.2 °F - 10.4 °F 92% 30.00 in 10.0 mi Calm Calm - N/A   Mostly Cloudy
2:36 AM 12.2 °F - 6.8 °F 79% 29.99 in 10.0 mi Calm Calm - N/A   Overcast
2:56 AM 10.4 °F - 6.8 °F 85% 29.99 in 10.0 mi Calm Calm - N/A   Overcast
3:16 AM 10.4 °F - 8.6 °F 92% 29.98 in 10.0 mi Calm Calm - N/A   Overcast
3:36 AM 12.2 °F - 10.4 °F 92% 29.97 in 10.0 mi Calm Calm - N/A   Overcast
3:56 AM 21.2 °F - 21.2 °F 100% 29.95 in 9.0 mi Calm Calm - N/A   Overcast
4:16 AM 21.2 °F 14.9 °F 19.4 °F 93% 29.95 in 10.0 mi NE 4.6 mph - N/A   Overcast
4:36 AM 21.2 °F 14.9 °F 19.4 °F 93% 29.94 in 10.0 mi NE 4.6 mph - N/A   Overcast
4:56 AM 21.2 °F - 19.4 °F 93% 29.94 in 10.0 mi Calm Calm - N/A   Overcast
5:16 AM 21.2 °F - 19.4 °F 93% 29.96 in 10.0 mi Calm Calm - N/A   Overcast
5:36 AM 21.2 °F - 19.4 °F 93% 29.96 in 10.0 mi Calm Calm - N/A   Overcast
5:56 AM 21.2 °F - 19.4 °F 93% 29.95 in 5.0 mi Calm Calm - N/A   Overcast
6:16 AM 23.0 °F - 21.2 °F 93% 29.95 in 1.0 mi Calm Calm - N/A   Overcast
6:36 AM 21.2 °F 16.4 °F 19.4 °F 93% 29.95 in 0.8 mi ENE 3.5 mph - N/A   Overcast
6:56 AM 21.2 °F 14.9 °F 19.4 °F 93% 29.93 in 0.8 mi ENE 4.6 mph - N/A   Overcast
7:16 AM 19.4 °F 11.5 °F 17.6 °F 93% 29.93 in 1.0 mi ENE 5.8 mph - 0.01 in   Overcast
7:36 AM 19.4 °F 11.5 °F 15.8 °F 86% 29.92 in 1.5 mi ENE 5.8 mph - 0.01 in   Overcast
7:56 AM 17.6 °F 9.3 °F 15.8 °F 93% 29.92 in 2.5 mi ENE 5.8 mph - 0.01 in   Overcast
8:16 AM 17.6 °F 8.2 °F 15.8 °F 93% 29.91 in 4.0 mi ENE 6.9 mph - N/A   Overcast
8:36 AM 17.6 °F 10.7 °F 15.8 °F 93% 29.90 in 5.0 mi ENE 4.6 mph - N/A   Overcast
8:56 AM 17.6 °F 8.2 °F 14.0 °F 86% 29.89 in 10.0 mi East 6.9 mph - N/A   Overcast
9:16 AM 17.6 °F 10.7 °F 14.0 °F 86% 29.88 in 10.0 mi ENE 4.6 mph - N/A   Overcast
9:36 AM 17.6 °F 9.3 °F 14.0 °F 86% 29.88 in 10.0 mi East 5.8 mph - N/A   Overcast
9:56 AM 17.6 °F 8.2 °F 14.0 °F 86% 29.87 in 10.0 mi East 6.9 mph - N/A   Overcast
10:16 AM 17.6 °F 7.3 °F 14.0 °F 86% 29.87 in 10.0 mi East 8.1 mph - N/A   Overcast
10:36 AM 17.6 °F 8.2 °F 14.0 °F 86% 29.85 in 10.0 mi East 6.9 mph - N/A   Overcast
10:56 AM 17.6 °F 12.3 °F 14.0 °F 86% 29.85 in 10.0 mi ENE 3.5 mph - N/A   Overcast
11:16 AM 17.6 °F 10.7 °F 14.0 °F 86% 29.85 in 10.0 mi East 4.6 mph - N/A   Mostly Cloudy
11:36 AM 17.6 °F 10.7 °F 14.0 °F 86% 29.83 in 10.0 mi ENE 4.6 mph - N/A   Mostly Cloudy
11:56 AM 17.6 °F - 14.0 °F 86% 29.83 in 10.0 mi Calm Calm - N/A   Mostly Cloudy
12:16 PM 17.6 °F - 14.0 °F 86% 29.82 in 10.0 mi Calm Calm - N/A   Overcast
12:36 PM 17.6 °F 10.7 °F 14.0 °F 86% 29.82 in 10.0 mi East 4.6 mph - N/A   Overcast
12:56 PM 17.6 °F 9.3 °F 14.0 °F 86% 29.82 in 10.0 mi ENE 5.8 mph - N/A   Overcast
1:16 PM 17.6 °F 8.2 °F 14.0 °F 86% 29.81 in 10.0 mi East 6.9 mph - N/A   Mostly Cloudy
1:36 PM 17.6 °F 12.3 °F 15.8 °F 93% 29.80 in 10.0 mi ENE 3.5 mph - N/A   Mostly Cloudy
1:56 PM 17.6 °F 12.3 °F 15.8 °F 93% 29.79 in 10.0 mi ENE 3.5 mph - N/A   Overcast
2:16 PM 19.4 °F 14.3 °F 15.8 °F 86% 29.79 in 10.0 mi ENE 3.5 mph - N/A   Overcast
2:36 PM 19.4 °F 14.3 °F 15.8 °F 86% 29.78 in 10.0 mi ENE 3.5 mph - N/A   Overcast
2:56 PM 19.4 °F 12.8 °F 15.8 °F 86% 29.77 in 10.0 mi ENE 4.6 mph - N/A   Overcast
3:16 PM 19.4 °F 11.5 °F 15.8 °F 86% 29.78 in 10.0 mi East 5.8 mph - N/A   Overcast
3:36 PM 19.4 °F 9.5 °F 15.8 °F 86% 29.77 in 10.0 mi ENE 8.1 mph - N/A   Overcast
3:56 PM 19.4 °F 10.4 °F 15.8 °F 86% 29.76 in 1.8 mi ENE 6.9 mph - N/A   Overcast
4:16 PM 19.4 °F 12.8 °F 15.8 °F 86% 29.75 in 1.5 mi ENE 4.6 mph - N/A   Overcast
4:36 PM 19.4 °F 14.3 °F 15.8 °F 86% 29.74 in 1.8 mi ENE 3.5 mph - N/A   Overcast
4:56 PM 19.4 °F - 17.6 °F 93% 29.74 in 7.0 mi Calm Calm - N/A   Overcast
5:16 PM 19.4 °F - 17.6 °F 93% 29.73 in 1.5 mi Calm Calm - N/A   Overcast
5:36 PM 19.4 °F - 17.6 °F 93% 29.72 in 1.0 mi Calm Calm - N/A   Overcast
5:56 PM 19.4 °F 12.8 °F 17.6 °F 93% 29.70 in 0.8 mi ENE 4.6 mph - N/A   Overcast
6:16 PM 19.4 °F 12.8 °F 17.6 °F 93% 29.70 in 1.0 mi East 4.6 mph - 0.01 in   Overcast
6:36 PM 19.4 °F 10.4 °F 17.6 °F 93% 29.69 in 1.8 mi ENE 6.9 mph - 0.01 in   Overcast
6:56 PM 19.4 °F 12.8 °F 17.6 °F 93% 29.68 in 5.0 mi ENE 4.6 mph - 0.01 in   Overcast
7:16 PM 19.4 °F 10.4 °F 17.6 °F 93% 29.66 in 1.5 mi ENE 6.9 mph - 0.01 in   Overcast
7:36 PM 21.2 °F 14.9 °F 17.6 °F 86% 29.65 in 3.0 mi ENE 4.6 mph - 0.01 in   Overcast
7:56 PM 21.2 °F 14.9 °F 17.6 °F 86% 29.64 in 5.0 mi East 4.6 mph - 0.01 in   Overcast
8:16 PM 21.2 °F 16.4 °F 17.6 °F 86% 29.63 in 9.0 mi ENE 3.5 mph - 0.01 in   Overcast
8:36 PM 21.2 °F 13.6 °F 17.6 °F 86% 29.61 in 10.0 mi ENE 5.8 mph - 0.02 in   Overcast
8:56 PM 21.2 °F - 17.6 °F 86% 29.61 in 10.0 mi Calm Calm - 0.04 in   Overcast
9:16 PM 21.2 °F - 19.4 °F 93% 29.60 in 10.0 mi Calm Calm - 0.01 in   Overcast
9:36 PM 21.2 °F - 17.6 °F 86% 29.60 in 10.0 mi Calm Calm - 0.01 in   Overcast
9:56 PM 21.2 °F 16.4 °F 19.4 °F 93% 29.59 in 10.0 mi ENE 3.5 mph - 0.02 in   Mostly Cloudy
10:16 PM 21.2 °F 14.9 °F 19.4 °F 93% 29.59 in 10.0 mi East 4.6 mph - N/A   Overcast
10:36 PM 21.2 °F 14.9 °F 19.4 °F 93% 29.60 in 10.0 mi East 4.6 mph - N/A   Overcast
10:56 PM 21.2 °F 16.4 °F 19.4 °F 93% 29.58 in 10.0 mi East 3.5 mph - N/A   Overcast
11:16 PM 21.2 °F 11.7 °F 19.4 °F 93% 29.59 in 10.0 mi East 8.1 mph - N/A   Overcast
11:36 PM 21.2 °F - 17.6 °F 86% 29.58 in 10.0 mi Calm Calm - N/A   Overcast
11:56 PM 21.2 °F 16.4 °F 19.4 °F 93% 29.60 in 10.0 mi ENE 3.5 mph - N/A   Overcast